Regional Weather Roundup
Issued by NWS

Home | Current Version | Previous Version | Graphics & Text | Print | Product List | Glossary On
Versions: 1 2 3 4 5 6 7 8 9 10 11 12 13 14 15 16 17 18 19 20 21 22 23 24 25 26 27
000
ASUS45 KBOU 260007
RWRCO

WEATHER ROUNDUP FOR COLORADO
NATIONAL WEATHER SERVICE DENVER/BOULDER CO
600 PM MDT SUN JUN 25 2017

NOTE: "FAIR" INDICATES FEW OR NO CLOUDS BELOW 12000 FEET WITH NO
SIGNIFICANT WEATHER AND/OR OBSTRUCTIONS TO VISIBILITY.

COZ001>005-013-030-031-260100-
...NORTHWEST COLORADO...

CITY           SKY/WX    TMP DP  RH WIND       PRES   REMARKS
CRAIG          FAIR      83  23  11 NW12      30.26F
HAYDEN         FAIR      81  27  13 W7        30.29F
MEEKER         FAIR      85  24  11 N12       30.27S
RABBIT EARS PA FAIR      61  30  31 NW7       30.59S
STEAMBOAT SPGS FAIR      78  31  18 W6        30.31S
WALDEN         FAIR      72  27  18 N13G21    30.42R
$$

COZ006>008-011-260100-
...WEST CENTRAL VALLEYS...

CITY           SKY/WX    TMP DP  RH WIND       PRES   REMARKS
GRAND JUNCTION FAIR      94  26   9 W8        30.07F
MONTROSE       FAIR      90  25   9 N9        30.16F
EAGLE          MOSUNNY   86  19   8 W9        30.25S
RIFLE          FAIR      91  22   8 N13G20    30.15F
DELTA          FAIR      97  17   5 W13G18    30.10F
NUCLA          FAIR      91  18   6 N13       30.18F
$$

COZ017>023-064>068-260100-
...SOUTHWEST COLORADO...

CITY           SKY/WX    TMP DP  RH WIND       PRES   REMARKS
DURANGO        FAIR      87  19   8 NW17G29   30.19F
CORTEZ         FAIR      93  24   8 W13       30.14F
PAGOSA SPRINGS FAIR      85  19   8 SW12      30.26F
TELLURIDE      FAIR      77  10   7 NW5G18    30.44F
WOLF CREEK PAS FAIR      57  32  38 S13G20    30.67F
$$

COZ009-010-012-014-032>034-037-058>063-260100-
...CENTRAL COLORADO...

CITY           SKY/WX    TMP DP  RH WIND       PRES   REMARKS
ASPEN          FAIR      80  21  11 N15G25    30.32F
BUENA VISTA    FAIR      82  11   7 NW15G25   30.30S
COPPER MTN     PTSUNNY   64  21  19 NW13G22   30.67F
BERTHOUD PASS  FAIR      52  37  58 N9G26     30.70S
COTTONWOOD PAS FAIR      79  -4   4 CALM      30.47F
GUNNISON       FAIR      79  29  16 NW9       30.31F
KREMMLING      NOT AVBL
LEADVILLE      FAIR      71  13  10 NW13G21   30.48F
MONARCH PASS   FAIR      64  18  16 W20       30.76S
SALIDA         FAIR      79  45  29 SE21G31   30.33S
SUNLIGHT       FAIR      63  23  22 NW3       30.62S
WILKERSON PASS PTSUNNY   54  43  66 E12G20    30.64S
$$

COZ069>075-260100-
...SAN LUIS VALLEY/SANGRE DE CRISTO MOUNTAINS...

CITY           SKY/WX    TMP DP  RH WIND       PRES   REMARKS
ALAMOSA        FAIR      74  34  23 SW7       30.26F
DEL NORTE      FAIR      79  41  26 SE7       30.30F
LA VETA PASS   PTSUNNY   59  48  67 MISG      30.61F
SAGUACHE       FAIR      82  21  10 NW20G28   30.28F
$$

COZ035-036-038>040-260100-
...NORTHERN COLORADO FRONT RANGE...

CITY           SKY/WX    TMP DP  RH WIND       PRES   REMARKS
DENVER INTL AP FAIR      73  53  49 N12       30.28F
DMNS CITY PARK   N/A     73  50  44 NE2G18    30.28S
AURORA         MOSUNNY   74  54  49 NE12      30.29F
FRONT RANGE AP PTSUNNY   73  54  49 NE15G21   30.29F
ERIE MUNI ARPT FAIR      72  49  43 CALM      30.28F
BOULDER MUN AP FAIR      70  48  46 NE5       30.29F
CENTENNIAL     PTSUNNY   74  51  44 NE9       30.30F
BROOMFIELD     FAIR      70  48  46 CALM      30.31F
FORT COLLINS   FAIR      72  52  49 VRB5      30.29F
LONGMONT       FAIR      75  51  42 CALM      30.30F
$$

COZ041-046-047-076>085-087-088-260100-
...PIKES PEAK/PALMER DIVIDE AND SOUTHERN FOOTHILLS...

CITY           SKY/WX    TMP DP  RH WIND       PRES   REMARKS
COLO. SPRINGS  FAIR      71  56  58 E14G23    30.30S
A. F. ACADEMY  PTSUNNY   72  52  49 E5        30.31S
SCHRIEVER AFB  FAIR      69  55  61 E10G23    30.30R
CHEYENNE MTN   PTSUNNY   65  53  65 CALM      30.30S
ELLICOTT       FAIR     N/A N/A N/A E21G26    30.28S
FALCON           N/A     72  50  45 E10G16    30.34F
FORT CARSON    NOT AVBL
LIMON          FAIR      67  56  67 SE16      30.28S
MONUMENT HILL  PTSUNNY   64  46  52 NE8G17    30.37R
CANON CITY     SUNNY     82  52  34 NE22      30.20S
WALSENBURG     CLOUDY    79  55  44 E20G28    30.22F
TRINIDAD       PTSUNNY   76  52  43 S12G18    30.18F
$$

COZ042>045-048>051-090-091-260100-
...NORTHEAST COLORADO...

CITY           SKY/WX    TMP DP  RH WIND       PRES   REMARKS
GREELEY ARPT   FAIR      70  53  54 N5        30.28F
AKRON          PTSUNNY   67  53  61 SE12      30.29S
BURLINGTON     PTSUNNY   64  56  75 E17       30.27F
WRAY           CLOUDY    64  54  68 SE8       30.27F
YUMA           FAIR      63  54  72 SE13      30.28S
STERLING       CLOUDY    70  54  56 SE8       30.26S
HOLYOKE        NOT AVBL
FORT MORGAN    FAIR      70  52  52 E10       30.28F
$$

COZ086-089-092>099-260100-
...SOUTHEAST COLORADO...

CITY           SKY/WX    TMP DP  RH WIND       PRES   REMARKS
PUEBLO         FAIR      76  57  51 E21       30.18R
LA JUNTA       FAIR      74  62  66 E25       30.17F
LAMAR          PTSUNNY   72  60  66 E18G28    30.18R
SPRINGFIELD      N/A     68  61  78 E22G28    30.19F
$$




USA.gov is the U.S. government's official web portal to all federal, state and local government web resources and services.